When you browse on this site, cookies collect data to enhance your experience and personalize the content and advertising you see.
Visit our Privacy Policy to learn more. By continuing to use the site, you agree to this use of cookies and data.
  • en Suisse
  • Liste des pays
  • À 7 jours
  • Température de l'eau
  • Carte météo
  • Widgets météo
  • user-avatar
    Se connecter

    Météo par heure à Senovo

    Ce jour, 24 Août, Samedi

    Heure Température Précipitation Vent Pression Humidité
    00:00 +15°C° 0 mm 4 m/s 762 mmHg 81%
    01:00 +15°C° 0 mm 4 m/s 762 mmHg 81%
    02:00 +15°C° 0 mm 4 m/s 761 mmHg 81%
    03:00 +15°C° 0 mm 4 m/s 761 mmHg 78%
    04:00 +15°C° 0 mm 4 m/s 761 mmHg 76%
    05:00 +17°C° 0 mm 4 m/s 761 mmHg 73%
    06:00 +17°C° 0 mm 4 m/s 761 mmHg 74%
    07:00 +17°C° 0 mm 4 m/s 761 mmHg 74%
    08:00 +18°C° 0 mm 4 m/s 761 mmHg 75%
    09:00 +19°C° 0 mm 4 m/s 761 mmHg 72%
    10:00 +20°C° 0 mm 4 m/s 761 mmHg 70%
    11:00 +22°C° 0 mm 4 m/s 761 mmHg 68%
    12:00 +22°C° 0.2 mm 4 m/s 761 mmHg 67%
    13:00 +22°C° 0.2 mm 4 m/s 761 mmHg 66%
    14:00 +22°C° 0.2 mm 3 m/s 761 mmHg 65%
    15:00 +22°C° 0 mm 3 m/s 761 mmHg 65%
    16:00 +24°C° 0 mm 2 m/s 761 mmHg 64%
    17:00 +24°C° 0 mm 2 m/s 761 mmHg 63%
    18:00 +21°C° 0 mm 2 m/s 762 mmHg 67%
    19:00 +19°C° 0 mm 2 m/s 762 mmHg 71%
    20:00 +17°C° 0 mm 2 m/s 762 mmHg 75%
    21:00 +16°C° 0 mm 2 m/s 763 mmHg 78%
    22:00 +15°C° 0 mm 2 m/s 763 mmHg 80%
    23:00 +14°C° 0 mm 2 m/s 763 mmHg 82%

    Demain, 25 Août, Dimanche

    Heure Température Précipitation Vent Pression Humidité
    00:00 +13°C° 0 mm 1 m/s 763 mmHg 85%
    01:00 +12°C° 0 mm 1 m/s 764 mmHg 88%
    02:00 +10°C° 0 mm 0 m/s 764 mmHg 91%
    03:00 +10°C° 0 mm 0 m/s 764 mmHg 91%
    04:00 +10°C° 0 mm 0 m/s 764 mmHg 92%
    05:00 +10°C° 0 mm 0 m/s 765 mmHg 92%
    06:00 +11°C° 0 mm 0 m/s 765 mmHg 86%
    07:00 +13°C° 0 mm 0 m/s 765 mmHg 80%
    08:00 +15°C° 0 mm 0 m/s 765 mmHg 74%
    09:00 +17°C° 0 mm 0 m/s 765 mmHg 69%
    10:00 +18°C° 0 mm 0 m/s 765 mmHg 64%
    11:00 +22°C° 0 mm 1 m/s 765 mmHg 59%
    12:00 +20°C° 0 mm 0 m/s 765 mmHg 57%
    13:00 +21°C° 0 mm 0 m/s 765 mmHg 54%
    14:00 +22°C° 0 mm 0 m/s 765 mmHg 52%
    15:00 +21°C° 0 mm 0 m/s 765 mmHg 54%
    16:00 +23°C° 0 mm 1 m/s 764 mmHg 56%
    17:00 +22°C° 0 mm 1 m/s 764 mmHg 59%
    18:00 +20°C° 0 mm 1 m/s 764 mmHg 64%
    19:00 +18°C° 0 mm 1 m/s 764 mmHg 70%
    20:00 +15°C° 0 mm 1 m/s 764 mmHg 76%
    21:00 +15°C° 0 mm 1 m/s 765 mmHg 78%
    22:00 +14°C° 0 mm 1 m/s 765 mmHg 80%
    23:00 +14°C° 0 mm 1 m/s 765 mmHg 82%

    Après-demain, 26 Août, Lundi

    Heure Température Précipitation Vent Pression Humidité
    00:00 +13°C° 0 mm 1 m/s 765 mmHg 84%
    01:00 +13°C° 0 mm 1 m/s 765 mmHg 86%
    02:00 +12°C° 0 mm 1 m/s 765 mmHg 88%
    03:00 +12°C° 0 mm 1 m/s 764 mmHg 88%
    04:00 +12°C° 0 mm 1 m/s 764 mmHg 89%
    05:00 +12°C° 0 mm 2 m/s 764 mmHg 89%
    06:00 +13°C° 0 mm 2 m/s 764 mmHg 84%
    07:00 +15°C° 0 mm 2 m/s 764 mmHg 79%
    08:00 +17°C° 0 mm 2 m/s 764 mmHg 73%
    09:00 +19°C° 0 mm 2 m/s 764 mmHg 68%
    10:00 +21°C° 0 mm 2 m/s 763 mmHg 63%
    11:00 +23°C° 0 mm 2 m/s 763 mmHg 58%
    12:00 +24°C° 0 mm 2 m/s 763 mmHg 57%
    13:00 +24°C° 0 mm 3 m/s 763 mmHg 56%
    14:00 +25°C° 0 mm 3 m/s 762 mmHg 55%
    15:00 +25°C° 0 mm 2 m/s 762 mmHg 59%
    16:00 +25°C° 0 mm 2 m/s 762 mmHg 63%
    17:00 +25°C° 0 mm 2 m/s 761 mmHg 67%
    18:00 +23°C° 0 mm 2 m/s 761 mmHg 73%
    19:00 +20°C° 0 mm 2 m/s 761 mmHg 79%
    20:00 +19°C° 0 mm 2 m/s 761 mmHg 84%
    21:00 +18°C° 0 mm 2 m/s 761 mmHg 87%
    22:00 +17°C° 0 mm 2 m/s 761 mmHg 89%
    23:00 +16°C° 0 mm 2 m/s 761 mmHg 91%

    27 Août, Mardi

    Heure Température Précipitation Vent Pression Humidité
    00:00 +16°C° 0 mm 2 m/s 761 mmHg 90%
    01:00 +15°C° 0 mm 2 m/s 761 mmHg 89%
    02:00 +14°C° 0 mm 2 m/s 761 mmHg 87%
    03:00 +14°C° 0 mm 2 m/s 761 mmHg 90%
    04:00 +14°C° 0 mm 2 m/s 761 mmHg 92%
    05:00 +13°C° 0 mm 2 m/s 761 mmHg 94%
    06:00 +15°C° 0 mm 2 m/s 761 mmHg 91%
    07:00 +16°C° 0 mm 2 m/s 761 mmHg 88%
    08:00 +17°C° 0 mm 2 m/s 762 mmHg 85%
    09:00 +19°C° 0 mm 2 m/s 762 mmHg 75%
    10:00 +20°C° 0 mm 3 m/s 762 mmHg 66%
    11:00 +22°C° 0 mm 3 m/s 762 mmHg 57%
    12:00 +22°C° 0 mm 3 m/s 762 mmHg 54%
    13:00 +22°C° 0 mm 3 m/s 762 mmHg 51%
    14:00 +22°C° 0 mm 3 m/s 762 mmHg 48%
    15:00 +22°C° 0 mm 3 m/s 762 mmHg 52%
    16:00 +21°C° 0 mm 3 m/s 762 mmHg 56%
    17:00 +21°C° 0 mm 3 m/s 762 mmHg 60%
    18:00 +19°C° 0 mm 2 m/s 762 mmHg 67%
    19:00 +17°C° 0 mm 2 m/s 762 mmHg 73%
    20:00 +15°C° 0 mm 2 m/s 763 mmHg 79%
    21:00 +15°C° 0 mm 2 m/s 763 mmHg 81%
    22:00 +14°C° 0 mm 2 m/s 763 mmHg 83%
    23:00 +13°C° 0 mm 1 m/s 764 mmHg 85%

    28 Août, Mercredi

    Heure Température Précipitation Vent Pression Humidité
    00:00 +13°C° 0 mm 1 m/s 764 mmHg 86%
    01:00 +12°C° 0 mm 1 m/s 764 mmHg 87%
    02:00 +12°C° 0 mm 1 m/s 764 mmHg 88%
    03:00 +12°C° 0 mm 1 m/s 764 mmHg 87%
    04:00 +11°C° 0 mm 1 m/s 764 mmHg 87%
    05:00 +11°C° 0 mm 1 m/s 765 mmHg 86%
    06:00 +12°C° 0 mm 1 m/s 765 mmHg 80%
    07:00 +14°C° 0 mm 1 m/s 765 mmHg 74%
    08:00 +16°C° 0 mm 1 m/s 765 mmHg 68%
    09:00 +18°C° 0 mm 1 m/s 765 mmHg 63%
    10:00 +19°C° 0 mm 2 m/s 765 mmHg 57%
    11:00 +20°C° 0 mm 2 m/s 765 mmHg 51%
    12:00 +21°C° 0 mm 2 m/s 764 mmHg 49%
    13:00 +21°C° 0 mm 2 m/s 764 mmHg 48%
    14:00 +23°C° 0 mm 2 m/s 764 mmHg 47%
    15:00 +23°C° 0 mm 2 m/s 764 mmHg 51%
    16:00 +21°C° 0 mm 2 m/s 764 mmHg 54%
    17:00 +21°C° 0 mm 2 m/s 763 mmHg 58%
    18:00 +19°C° 0 mm 2 m/s 763 mmHg 64%
    19:00 +17°C° 0 mm 2 m/s 763 mmHg 70%
    20:00 +15°C° 0 mm 2 m/s 763 mmHg 76%
    21:00 +15°C° 0 mm 2 m/s 763 mmHg 78%
    22:00 +14°C° 0 mm 2 m/s 764 mmHg 81%
    23:00 +13°C° 0 mm 2 m/s 764 mmHg 84%

    29 Août, Jeudi

    Heure Température Précipitation Vent Pression Humidité
    00:00 +13°C° 0 mm 2 m/s 764 mmHg 85%
    01:00 +13°C° 0 mm 2 m/s 764 mmHg 87%
    02:00 +12°C° 0 mm 2 m/s 764 mmHg 88%
    03:00 +12°C° 0 mm 2 m/s 764 mmHg 89%
    04:00 +12°C° 0 mm 1 m/s 764 mmHg 91%
    05:00 +11°C° 0 mm 1 m/s 764 mmHg 92%
    06:00 +13°C° 0 mm 2 m/s 764 mmHg 86%
    07:00 +14°C° 0 mm 2 m/s 764 mmHg 81%
    08:00 +16°C° 0 mm 2 m/s 764 mmHg 75%
    09:00 +17°C° 0 mm 2 m/s 764 mmHg 68%
    10:00 +19°C° 0 mm 2 m/s 763 mmHg 61%
    11:00 +21°C° 0 mm 2 m/s 763 mmHg 55%
    12:00 +21°C° 0 mm 2 m/s 763 mmHg 53%
    13:00 +23°C° 0 mm 2 m/s 763 mmHg 51%
    14:00 +23°C° 0 mm 2 m/s 762 mmHg 49%
    15:00 +23°C° 0 mm 2 m/s 762 mmHg 53%
    16:00 +23°C° 0 mm 2 m/s 762 mmHg 56%
    17:00 +23°C° 0 mm 1 m/s 762 mmHg 60%
    18:00 +21°C° 0 mm 1 m/s 762 mmHg 66%
    19:00 +19°C° 0 mm 1 m/s 762 mmHg 71%
    20:00 +16°C° 0 mm 1 m/s 762 mmHg 76%
    21:00 +15°C° 0 mm 1 m/s 762 mmHg 79%
    22:00 +14°C° 0 mm 1 m/s 762 mmHg 82%
    23:00 +13°C° 0 mm 1 m/s 762 mmHg 85%
    Voir plus